Location: *
(46.1833°N, 22.7667°E)
Time: 22:00:51
(UTC+00:00)

SPOT 3 Rocket - Pass Details

Date: 17 September 2019
Orbit: 780 x 794 km, 98.8° (Epoch: 19 October)

Event Time Altitude Azimuth Distance (km) Brightness Sun altitude
Exits shadow 17:21:11 - 137° (SE) 2,818 5.9 -8.3°
Reaches altitude 10° 17:22:30 10° 132° (SE) 2,330 5.5 -8.6°
Maximum altitude 17:27:10 37° 66° (ENE) 1,203 4.1 -9.4°
Drops below altitude 10° 17:31:53 10° 1° (N) 2,345 6.2 -10.1°
Sets 17:34:20 0° 353° (N) 3,278 7.1 -10.6°
